Theta_e
313 313 313 313 313 313 313 313 312 311 310 309 308 307 306 305 304 304 303 302 302 301 301 301 301 300 300 299 299 299 298 298 298 297 297 297 297 297 297 297 296 296 296 296 296 296 296 296 296 295 295 295 295 294 294 294 293 293 293 292 292 292 293 293 293 293 294 295 294 294 294 293 294 294 293 293 293 293 293 294 294 296 297 298 298
313 313 313 312 313 312 312 311 310 309 308 307 306 306 305 304 303 303 302 301 301 301 301 300 299 299 299 298 298 298 298 297 297 297 297 297 297 296 296 296 296 296 296 296 296 296 296 296 296 295 295 295 295 295 294 294 294 293 293 292 292 292 292 293 293 293 293 294 294 294 294 293 293 293 293 293 293 293 293 293 294 294 295 296 297
312 312 312 312 312 311 310 309 309 308 307 306 305 304 304 303 302 302 301 301 301 300 300 299 298 298 298 298 298 297 297 297 297 297 296 296 296 296 296 296 296 296 296 296 295 295 295 295 295 295 295 295 294 294 294 294 294 293 293 292 292 291 291 292 293 293 293 293 293 293 293 292 292 292 292 292 292 293 293 293 293 294 294 296 296
312 312 312 311 311 310 309 308 307 306 305 305 304 303 303 302 302 301 301 300 300 299 299 299 298 298 297 297 297 297 297 296 296 296 296 296 296 296 296 296 296 295 295 295 295 295 295 295 295 294 294 294 294 294 294 293 293 293 292 292 291 291 291 292 293 294 293 293 292 291 292 292 292 292 292 293 293 293 293 293 293 294 294 295 295
312 312 311 310 309 308 308 307 306 305 304 304 303 302 302 302 301 301 300 299 299 299 299 298 298 297 297 297 297 296 296 296 296 296 296 296 296 295 295 295 295 295 295 295 294 294 294 294 294 294 294 293 294 293 293 293 292 292 291 291 290 290 291 291 292 294 294 294 293 292 291 291 292 292 292 293 293 293 293 293 293 293 294 294 294
311 310 309 309 308 307 306 305 304 304 303 303 302 302 301 301 300 300 299 299 299 299 298 297 297 297 296 296 296 296 296 296 296 296 295 295 295 295 295 295 295 294 294 294 294 294 294 294 294 293 293 293 293 293 292 292 292 291 291 291 290 290 290 291 292 293 294 294 293 293 292 292 292 292 292 293 293 293 293 293 292 293 294 294 294
310 309 308 307 307 306 305 304 303 302 302 302 301 301 301 300 300 300 299 299 298 298 297 297 296 296 296 296 296 296 296 295 295 295 295 295 295 295 295 294 294 294 294 294 294 294 293 293 293 293 292 292 292 292 291 291 291 291 291 290 290 290 290 291 292 293 293 294 294 293 293 292 293 293 293 293 293 293 293 293 293 293 293 293 293
309 308 307 306 305 304 303 302 302 301 301 301 300 300 300 299 299 299 299 298 298 297 297 296 296 296 296 296 295 295 295 295 295 295 295 295 294 294 294 294 294 294 294 294 293 293 293 293 292 292 292 292 292 291 291 290 290 290 290 290 290 290 290 290 291 292 293 293 293 293 293 293 293 293 293 293 293 293 293 292 292 292 293 293 293
307 306 305 304 304 303 302 301 301 300 300 300 300 300 299 299 299 298 298 298 297 297 296 296 296 296 296 295 295 295 295 294 294 294 294 294 294 294 294 294 293 293 293 293 293 293 292 292 292 292 292 292 291 291 290 290 289 289 289 289 289 290 290 290 291 292 292 292 292 292 292 292 293 293 293 293 293 293 292 292 292 292 293 293 293
306 305 304 303 303 302 301 301 300 300 300 299 299 299 298 298 298 297 298 297 297 296 296 296 296 295 295 295 295 294 294 294 294 294 294 294 293 293 293 293 293 292 292 293 292 292 292 292 292 292 292 292 291 291 290 290 289 289 289 289 289 289 290 290 291 291 291 291 291 291 291 291 292 292 292 293 293 293 292 292 292 292 293 293 294
305 304 303 302 302 301 301 300 300 300 300 299 299 298 298 298 298 298 297 297 296 296 296 295 295 295 295 294 294 294 293 293 293 293 293 293 292 292 292 292 292 292 292 292 292 292 292 292 292 292 291 291 291 290 290 290 289 288 288 288 288 289 289 290 290 290 291 291 291 291 291 291 291 291 292 292 293 293 292 293 293 293 293 293 294
303 303 302 301 301 300 300 300 300 299 299 298 298 298 298 298 298 297 297 296 296 296 295 295 295 294 294 294 293 293 293 293 293 293 292 292 292 292 292 292 292 292 292 292 292 291 292 292 292 292 291 290 290 290 290 289 289 288 288 288 288 288 289 289 290 290 290 290 290 290 290 290 290 291 291 291 292 292 292 292 293 293 293 293 293
302 302 301 301 300 300 300 299 299 298 298 298 298 298 298 298 297 297 296 296 295 295 295 295 294 294 294 293 293 293 293 292 292 292 292 292 292 292 291 291 291 291 291 291 291 291 291 291 291 292 291 290 289 289 289 289 288 288 288 288 288 288 288 288 289 289 289 289 289 289 289 289 290 290 290 290 291 291 291 292 292 292 292 292 293
301 301 300 300 300 299 299 298 298 298 298 298 298 298 298 297 297 296 296 295 295 295 294 294 293 293 293 293 293 292 292 292 292 292 292 292 291 291 291 291 291 291 291 291 291 291 291 290 290 291 291 290 289 288 288 288 288 288 288 288 288 288 288 288 288 288 288 288 289 289 289 289 289 289 289 290 290 290 290 291 291 291 291 292 292
301 300 300 299 299 299 298 298 297 297 298 298 298 298 297 297 296 296 295 295 295 294 294 293 293 293 293 293 293 292 291 291 291 291 291 291 291 291 291 291 291 291 291 291 290 290 290 290 289 289 289 289 289 288 287 287 287 287 287 287 287 287 287 287 287 287 288 288 288 288 288 288 288 289 289 289 290 290 290 291 291 291 291 291 292
300 300 299 299 298 298 297 297 297 298 298 298 298 298 297 296 295 295 294 294 294 293 293 293 292 292 292 292 292 292 291 291 291 291 291 290 291 291 290 291 291 291 291 291 290 290 290 289 289 288 288 288 288 288 287 287 287 287 287 287 287 287 287 287 287 287 287 287 287 287 287 288 288 288 289 289 289 290 290 290 290 290 290 291 291
299 299 298 298 298 297 297 297 298 298 298 298 297 297 296 295 295 294 294 293 293 292 292 292 292 292 292 292 291 291 291 291 291 291 290 290 290 290 290 290 291 291 291 291 290 289 289 289 288 288 288 288 288 287 286 286 286 286 286 286 286 286 286 287 286 286 286 286 286 286 287 287 288 288 288 288 289 289 289 289 289 290 290 290 290
299 298 298 298 297 297 297 297 298 298 298 297 296 295 295 294 294 293 293 292 292 292 292 292 292 292 291 291 291 291 291 290 290 290 290 290 289 289 289 289 290 290 290 290 290 289 289 288 287 287 287 287 287 286 286 286 286 286 285 285 285 285 285 286 286 286 286 286 286 287 287 287 287 287 288 288 288 288 288 288 289 289 289 289 290
298 298 297 297 297 297 297 298 298 298 297 296 295 294 293 293 293 292 292 292 292 292 292 292 291 291 291 291 290 290 290 290 290 290 290 289 289 289 289 288 288 289 289 289 289 289 288 288 287 287 286 285 285 285 285 285 285 285 284 284 285 285 285 285 286 286 286 286 286 287 287 287 287 287 287 288 288 288 288 288 288 288 289 289 289
298 297 297 297 297 297 297 297 297 297 296 295 294 293 293 292 292 291 291 291 291 291 291 291 291 291 290 290 290 290 290 290 290 289 289 289 289 288 288 287 287 287 288 288 288 288 288 287 287 286 286 285 285 284 284 284 284 284 284 285 285 285 285 285 286 286 286 286 287 287 287 287 287 287 287 287 287 287 287 287 288 288 288 289 289
297 297 297 296 297 297 297 297 297 296 295 294 293 292 292 291 291 291 291 291 291 291 291 291 291 291 290 290 290 290 289 290 289 289 288 288 288 288 287 287 286 286 287 287 287 287 287 287 287 286 286 285 284 284 284 284 284 284 284 285 285 285 285 285 286 286 286 287 287 287 287 287 287 287 286 286 287 287 287 287 287 288 288 288 289
296 296 296 296 296 297 296 296 295 294 293 293 292 292 291 291 290 290 290 291 291 291 291 291 290 290 290 290 290 289 289 289 289 288 288 287 287 287 286 286 286 286 286 286 286 286 286 286 286 286 285 284 283 283 283 284 284 284 284 284 284 285 285 285 286 286 287 287 287 287 287 287 287 286 286 286 286 286 287 287 287 287 288 288 288
296 296 296 296 296 296 296 295 294 293 292 292 291 291 290 290 290 290 290 291 291 290 290 290 290 290 290 290 289 289 289 289 288 288 288 287 287 286 286 286 285 285 285 285 285 285 285 285 285 284 283 282 282 283 283 283 283 283 283 284 284 285 285 286 286 287 287 287 287 287 287 287 286 286 286 286 286 286 287 287 287 287 287 287 288
296 296 296 296 295 295 295 294 293 292 292 291 290 290 290 290 290 290 290 290 290 290 290 289 289 289 289 290 289 289 288 288 288 287 287 287 287 286 286 285 285 284 284 284 284 284 284 283 283 282 282 282 282 282 282 283 283 283 283 284 285 285 286 286 286 286 286 287 287 287 287 286 286 286 285 285 286 286 286 286 286 287 287 287 287
296 295 295 295 295 294 294 293 292 291 291 290 290 290 290 290 290 290 290 290 290 289 289 289 289 289 288 289 289 288 288 287 287 287 287 287 286 286 286 285 285 284 283 283 283 283 282 281 281 281 282 282 282 282 282 282 283 283 284 284 285 285 285 286 286 286 286 287 287 287 287 286 286 285 285 285 286 286 286 286 286 286 286 286 286
295 295 295 295 294 293 293 292 291 291 290 290 290 289 290 290 290 290 290 289 289 289 288 288 288 288 288 288 288 288 288 287 287 287 287 286 286 286 285 285 285 284 284 283 283 283 282 281 282 282 282 282 282 282 282 282 283 283 284 284 284 285 285 285 286 286 286 286 286 286 286 286 285 285 285 285 285 285 285 285 285 284 285 285 285
294 294 294 294 293 292 292 291 290 290 289 289 289 289 290 290 290 289 289 289 288 288 288 288 287 287 287 287 287 287 287 287 286 287 286 286 286 286 285 285 285 284 284 283 283 283 282 282 283 283 283 283 282 282 282 282 283 283 283 283 284 285 285 285 286 286 286 286 286 286 285 285 285 285 285 284 284 284 284 284 284 284 284 284 285
294 294 293 293 292 291 291 290 290 289 289 289 289 289 289 289 289 289 288 288 288 288 287 287 287 286 286 286 287 287 287 286 286 285 285 285 285 285 285 285 284 284 283 283 282 282 282 283 283 283 283 282 282 282 282 282 282 282 283 283 284 284 285 285 286 286 286 286 285 285 284 284 284 284 284 284 284 284 283 283 283 283 283 284 284
294 293 292 292 291 291 290 290 289 289 289 289 289 289 289 289 289 288 288 287 287 287 287 286 286 286 285 285 286 286 286 286 285 284 284 284 284 284 283 283 282 282 282 282 281 281 282 282 283 282 282 281 281 281 281 281 282 283 283 283 284 284 285 285 285 285 285 284 284 284 284 284 284 283 283 283 283 283 282 282 282 283 283 283 283
293 292 292 291 291 290 290 289 289 289 289 289 289 289 289 289 288 288 287 287 287 286 286 285 285 285 285 285 284 284 284 285 284 284 284 284 284 283 283 282 281 280 281 280 280 280 280 281 281 281 280 279 279 279 280 281 281 282 283 283 283 284 284 285 284 284 284 284 283 283 283 283 283 283 282 282 282 282 282 282 282 282 282 283 283
292 292 291 290 290 290 289 289 289 289 289 289 289 289 288 288 288 287 287 287 286 286 285 285 285 285 285 284 284 283 283 283 284 284 284 284 284 284 283 283 282 281 280 279 279 279 279 279 279 279 278 278 278 279 279 280 281 281 282 282 283 283 283 283 283 283 283 283 283 283 283 283 282 282 282 282 281 281 281 281 281 282 282 282 283
292 291 290 290 290 289 289 289 289 289 289 289 289 289 288 287 287 287 287 286 286 286 285 285 285 285 284 284 284 284 283 283 283 283 283 283 283 283 283 283 281 280 280 279 278 278 277 276 277 277 277 278 279 279 279 280 281 281 281 282 282 282 283 283 283 283 283 283 282 282 282 282 282 281 281 281 281 280 281 281 281 281 281 282 282
291 290 290 289 289 289 289 289 289 289 289 289 289 288 288 287 287 287 287 286 286 286 285 285 285 284 284 284 284 283 283 283 282 282 282 282 282 282 282 281 280 279 279 279 279 278 277 276 276 277 278 278 279 280 280 281 281 281 281 282 282 282 283 283 283 283 282 282 282 282 282 281 281 281 280 280 280 280 280 281 281 281 281 281 281
290 290 289 289 289 289 289 288 288 288 288 288 288 288 287 287 287 287 287 286 286 286 285 285 284 284 284 283 283 283 283 282 282 282 282 281 281 281 281 281 280 280 279 279 278 277 276 276 277 277 278 278 279 280 281 281 281 281 282 282 282 282 283 283 282 282 282 282 281 281 281 281 280 280 280 280 280 280 280 281 281 281 281 281 281
290 289 289 289 289 288 288 288 288 288 288 288 287 287 287 287 287 287 286 286 286 286 285 285 284 283 283 283 283 282 282 282 281 281 281 281 281 281 281 281 281 280 280 278 277 276 276 277 277 278 278 279 280 280 280 281 281 282 282 282 282 282 282 282 282 282 282 281 281 281 281 280 280 280 279 279 280 280 280 281 281 281 281 281 281
289 289 289 289 288 288 288 288 288 288 288 287 287 287 287 287 286 286 286 286 286 286 285 285 284 283 283 283 282 282 281 281 280 280 280 279 280 280 280 280 280 279 278 278 277 277 277 278 278 278 279 279 280 280 280 280 281 281 281 281 282 282 282 282 282 281 281 281 280 280 280 280 280 280 280 279 280 280 281 281 282 281 281 281 281
289 289 289 288 288 288 288 288 288 287 287 287 287 287 286 286 286 286 286 286 285 285 285 284 284 284 283 283 282 282 281 280 279 279 279 279 279 278 278 278 277 277 277 277 277 277 277 278 278 279 279 279 280 280 280 281 281 281 281 281 281 281 282 281 281 280 280 280 280 280 280 280 280 280 280 280 280 281 281 282 282 282 281 281 282
289 289 288 288 288 288 288 288 287 287 287 286 286 286 286 286 286 285 285 285 285 284 284 284 284 283 283 283 282 281 281 280 280 279 279 278 278 277 277 276 276 276 276 276 276 276 276 277 278 278 279 279 279 280 280 280 281 281 281 281 281 282 282 281 280 280 280 280 280 280 280 281 281 281 280 281 281 282 282 282 282 282 282 281 282
289 288 288 288 288 288 288 287 287 287 287 286 286 286 286 285 285 285 285 284 284 284 283 283 283 282 282 282 281 281 281 280 280 279 279 278 277 277 276 276 275 275 275 275 275 276 276 277 277 278 278 279 279 279 279 280 281 281 281 281 281 281 281 281 280 280 280 280 280 281 281 281 281 281 281 281 282 282 282 282 282 282 282 281 281
288 288 288 288 287 287 287 287 287 286 286 286 285 285 285 285 285 284 284 284 283 283 282 282 282 281 281 281 281 280 280 279 279 278 278 278 277 277 276 276 275 275 275 276 276 276 276 277 277 277 278 278 278 279 280 280 280 280 280 281 281 281 281 280 280 280 280 281 281 281 282 282 282 282 282 282 282 282 282 282 281 281 281 281 280
288 288 287 287 288 288 287 286 286 286 285 285 285 285 285 284 284 284 283 283 282 282 281 281 281 281 280 280 279 279 279 278 278 277 277 277 276 276 276 276 276 275 276 276 276 276 276 277 277 277 277 278 278 279 279 280 280 280 280 280 281 281 281 280 280 281 281 281 282 282 282 282 282 282 282 282 282 282 282 282 281 281 280 280 280
288 288 288 288 287 287 286 285 285 285 285 284 284 284 284 284 283 283 283 282 282 281 281 280 280 280 279 279 278 278 278 278 277 277 277 276 276 276 276 275 275 275 275 275 275 275 276 276 276 277 277 277 278 278 279 279 279 279 279 280 281 281 281 281 281 281 282 282 282 282 282 282 282 282 282 282 282 282 282 282 281 281 280 280 279
288 288 288 287 286 285 285 285 285 284 284 284 284 284 284 283 283 282 282 281 281 281 280 280 279 279 278 278 278 277 277 277 277 277 276 276 276 276 275 275 275 275 275 275 275 275 275 275 275 276 276 276 276 277 277 277 278 278 279 279 280 281 281 281 281 282 282 283 282 283 283 283 282 282 282 282 282 282 282 282 281 280 280 279 279
288 287 286 286 285 285 285 284 284 283 283 283 284 284 283 283 282 282 281 281 280 280 279 279 279 278 278 277 277 277 277 276 276 276 276 276 276 275 275 275 275 274 274 274 274 274 274 274 274 274 274 275 275 275 275 276 276 277 278 279 280 281 281 282 282 282 283 283 283 283 283 283 282 282 282 282 282 282 282 281 281 280 280 279 278
287 286 285 285 285 284 284 284 283 283 283 283 283 283 283 282 282 281 280 280 279 279 279 278 278 277 277 277 276 276 276 276 275 275 275 275 275 275 275 274 274 274 274 274 273 273 273 273 273 274 274 274 274 275 275 275 275 276 277 278 279 280 281 282 282 282 282 282 282 282 282 282 282 282 282 282 282 281 281 281 281 280 279 279 278
286 285 285 285 284 284 283 283 282 282 282 283 283 282 282 281 281 280 280 279 279 278 278 277 277 277 277 276 276 276 275 275 275 275 275 274 274 274 274 274 274 274 274 273 273 273 273 273 273 273 273 273 274 274 274 275 275 276 276 277 278 279 280 281 281 282 282 282 282 282 281 281 281 281 281 281 281 281 281 281 280 280 279 279 278
285 285 285 284 284 283 283 282 282 282 282 282 282 282 281 280 280 279 279 278 278 277 277 277 277 276 276 276 275 275 275 275 274 274 274 274 274 274 274 274 274 274 274 273 273 273 273 273 273 272 273 273 273 274 274 274 275 275 276 276 277 278 278 279 280 280 281 281 281 281 281 281 281 281 281 281 281 281 280 280 280 279 278 278 277
284 284 284 283 283 282 282 281 281 282 282 282 281 281 280 280 279 278 278 278 277 277 276 276 276 276 275 275 275 275 274 274 274 274 273 273 273 273 273 273 273 274 273 273 273 273 273 273 273 272 272 273 273 274 274 274 274 275 275 276 276 276 277 277 278 279 279 280 280 280 280 280 281 280 280 280 280 280 280 279 279 278 278 277 276
282 282 282 282 282 282 281 281 281 281 281 281 280 280 279 279 278 278 277 277 276 276 276 276 276 275 275 275 274 274 274 274 273 273 273 273 273 273 273 273 273 273 273 273 273 273 273 273 273 273 273 273 273 273 274 274 274 274 275 275 275 275 276 276 277 277 277 278 278 279 279 279 279 279 279 279 279 279 279 278 278 277 277 276 276
281 281 281 282 281 280 280 280 280 281 280 280 279 279 278 278 278 277 277 276 276 276 276 275 275 275 274 274 274 274 274 273 273 273 273 273 273 273 273 273 273 272 272 272 272 273 273 273 273 273 273 273 273 273 273 274 274 274 274 275 275 275 275 275 276 276 276 277 277 277 277 277 278 278 278 278 278 278 277 277 277 276 276 276 276
280 281 281 281 280 279 279 279 280 280 279 278 278 278 277 277 277 276 276 276 275 275 275 275 274 274 274 274 274 274 273 273 273 273 273 273 273 273 273 273 272 272 272 272 272 272 272 272 273 273 273 273 273 273 273 273 273 274 274 274 274 274 274 275 275 275 276 276 276 276 276 276 276 276 276 276 276 276 276 276 276 276 276 276 275
Wind_Speed
16 16 15 14 13 13 13 12 12 11 10 9 8 7 6 5 4 3 2 1 2 3 4 6 7 8 9 10 11 12 13 13 14 15 15 15 17 17 18 19 20 21 22 24 25 27 29 30 31 32 34 36 36 37 37 37 37 37 35 34 34 31 29 30 34 45 56 57 55 57 55 53 55 55 52 53 53 51 51 51 49 48 47 46 44
16 16 15 15 14 13 13 13 13 12 11 10 9 7 6 5 4 3 1 0 2 3 5 7 8 9 10 11 12 13 14 15 15 16 16 17 18 19 21 22 23 25 26 27 28 29 31 32 33 35 36 38 39 39 40 41 41 42 40 38 39 37 32 31 34 40 51 59 58 58 56 54 54 54 52 52 52 52 52 51 50 49 48 46 45
16 16 15 15 14 14 14 13 13 12 11 10 9 8 7 5 4 2 1 1 3 4 6 8 9 11 12 13 14 15 15 16 17 18 19 19 20 21 23 24 26 27 28 29 31 31 33 34 35 36 38 39 40 40 41 43 43 43 44 42 41 40 36 32 34 37 44 54 58 58 57 55 54 54 52 50 50 50 51 51 50 50 49 47 46
16 16 15 16 16 15 15 14 13 12 11 10 9 8 6 5 3 2 1 2 4 5 7 9 11 12 13 14 15 16 16 17 18 19 21 22 23 24 25 26 27 29 30 31 32 34 35 36 37 38 40 41 42 42 43 44 44 44 44 43 42 41 38 35 34 36 40 48 55 57 57 56 56 55 52 51 51 49 49 50 50 50 50 48 46
17 17 16 17 17 16 15 14 13 12 11 10 9 7 6 4 2 1 2 3 5 7 9 11 12 13 14 15 16 17 18 19 20 21 22 23 25 26 27 28 29 30 31 32 34 35 37 38 39 40 42 43 44 45 45 45 45 45 45 44 43 41 40 38 37 37 39 44 51 56 56 55 56 55 51 49 50 51 49 49 48 49 49 48 46
18 18 18 17 17 16 15 14 14 12 11 9 8 6 5 3 2 2 3 4 7 9 10 12 13 14 15 16 17 17 18 20 21 22 24 25 26 28 29 30 31 32 33 34 35 37 38 40 41 42 43 45 46 47 47 47 46 47 46 45 44 42 41 41 40 39 40 43 47 52 54 55 55 55 52 47 47 47 47 48 49 48 47 47 47
20 19 19 18 17 16 16 14 13 12 10 9 7 6 5 4 3 3 4 6 8 10 11 13 14 15 16 17 18 18 19 21 22 23 25 26 28 29 30 31 33 34 35 36 37 39 40 42 43 44 45 46 47 48 48 48 48 48 48 45 44 43 43 42 41 41 41 43 46 49 52 53 53 53 53 49 46 44 42 45 48 48 47 48 49
21 20 19 18 17 16 15 14 12 11 10 9 7 6 5 3 3 4 6 8 9 11 11 13 14 15 16 17 18 19 20 21 23 24 26 27 29 30 32 33 35 37 38 39 40 40 42 43 44 45 46 47 48 48 48 48 49 50 49 47 44 44 44 43 43 42 42 43 46 48 50 52 52 52 52 49 45 44 43 43 45 47 48 48 49
21 21 20 19 18 16 15 14 12 11 10 8 7 5 3 3 4 5 7 8 9 11 12 13 14 15 16 17 18 19 20 22 23 25 27 28 30 32 33 35 36 38 39 40 41 41 42 43 44 45 46 47 48 48 48 48 48 49 50 48 46 44 44 44 44 43 43 43 46 48 48 50 52 50 50 48 45 45 45 44 44 45 46 47 49
22 21 20 19 18 17 15 14 13 11 9 7 5 3 3 3 5 6 7 8 9 10 12 13 15 16 16 17 18 19 21 22 23 25 27 29 32 33 34 35 36 38 39 40 41 42 42 43 45 46 47 48 49 49 50 50 49 49 49 49 47 45 45 45 45 44 42 43 46 47 48 50 52 49 48 48 46 45 45 43 44 45 44 47 50
22 21 20 19 18 17 16 15 13 11 8 6 4 3 3 4 5 6 7 9 10 11 13 14 16 17 17 18 19 20 21 23 24 26 28 29 31 33 34 35 36 37 39 41 42 44 45 46 47 48 48 49 50 50 51 52 51 51 51 51 49 47 45 44 44 43 42 43 46 47 48 50 52 50 48 48 46 44 43 42 43 44 44 46 48
23 22 21 20 19 17 16 14 12 10 7 5 4 3 4 4 5 7 8 10 11 12 14 16 16 18 18 19 20 21 22 24 25 27 27 28 30 32 33 35 37 38 39 41 43 45 47 48 50 50 50 50 51 51 52 53 53 53 54 54 53 51 47 43 41 40 40 42 45 48 49 51 51 50 48 47 45 44 43 43 44 45 45 45 46
24 23 22 21 19 17 15 13 11 9 7 6 5 4 4 5 6 8 9 11 13 14 15 17 18 19 20 21 21 22 24 25 26 26 27 28 30 32 34 36 38 39 41 43 45 46 48 50 52 53 53 52 52 52 53 54 55 56 56 56 57 56 53 47 41 39 39 41 44 48 49 49 50 49 48 46 44 43 45 46 45 45 47 47 47
25 24 23 21 19 17 15 13 10 9 8 6 6 5 5 6 7 9 11 12 14 15 16 18 19 20 21 22 23 23 24 24 25 26 27 29 31 33 35 37 39 41 43 44 46 48 49 50 52 54 55 54 53 53 54 55 56 57 57 58 58 57 55 52 46 41 40 41 43 46 48 48 49 49 48 46 44 44 45 47 47 48 49 49 49
26 25 23 21 19 17 14 12 11 9 8 7 6 5 6 7 9 10 12 14 15 16 17 18 19 20 22 23 24 24 23 23 24 26 28 30 33 35 37 39 41 43 45 47 48 49 50 51 53 54 55 55 55 54 54 54 55 57 57 57 58 56 56 54 48 43 42 42 43 46 47 47 48 48 48 47 46 46 47 48 49 50 49 50 50
27 25 23 21 19 17 14 13 11 10 8 7 5 5 7 8 10 11 12 14 16 17 18 19 20 21 22 23 24 23 22 23 25 27 30 32 34 37 39 41 43 45 47 49 50 51 52 52 53 54 55 56 55 54 55 53 51 52 52 53 55 56 57 56 50 45 44 44 44 45 46 45 45 45 46 46 45 45 46 47 48 47 47 48 49
27 25 23 21 19 17 15 13 11 10 8 6 6 6 8 9 10 12 13 14 15 17 18 19 21 22 23 24 25 24 23 24 26 28 31 34 36 39 41 43 45 48 49 51 52 53 54 54 54 55 55 56 56 56 55 50 46 46 48 50 52 54 56 55 52 50 49 48 47 46 44 44 43 43 44 44 44 43 43 45 46 44 43 46 47
27 25 23 21 19 17 15 13 11 9 7 6 6 7 8 10 11 13 14 15 16 18 19 20 21 22 24 24 25 25 26 27 28 30 32 36 38 41 43 45 47 50 52 53 54 55 56 56 55 55 55 55 55 54 50 45 42 44 47 49 50 52 53 52 52 53 53 51 49 48 47 47 47 47 45 43 41 40 41 43 42 41 43 45 46
28 25 23 21 19 17 14 12 11 9 7 6 7 8 9 10 12 13 14 15 17 19 21 22 22 22 23 24 24 26 27 28 30 32 34 37 40 42 44 47 49 51 53 54 56 57 57 58 57 56 54 53 52 51 49 45 43 45 46 48 50 51 50 50 51 53 53 52 51 51 51 51 51 49 46 43 41 39 38 39 40 41 44 45 44
27 25 23 21 18 16 14 12 10 8 7 7 7 8 9 11 12 13 14 16 18 20 21 23 23 23 23 23 25 26 28 29 31 34 36 38 41 43 45 47 49 51 54 55 57 58 58 59 58 56 53 52 51 50 47 44 42 44 46 47 49 51 51 50 50 51 51 51 52 53 53 52 49 48 46 43 41 39 38 39 39 40 42 42 42
27 25 22 20 18 16 14 12 9 8 7 7 8 9 10 11 12 13 15 17 19 20 22 24 24 24 24 25 26 28 30 31 33 36 39 40 42 44 45 47 48 51 53 55 56 57 57 58 58 56 54 53 51 48 45 43 43 45 47 48 49 50 49 49 48 48 49 51 52 53 53 50 48 48 47 43 40 39 38 38 38 38 39 40 41
27 24 22 20 17 15 13 10 9 8 7 8 9 9 10 11 13 14 16 18 20 22 23 24 25 25 25 26 27 28 31 33 35 38 40 41 43 44 45 46 47 49 52 54 55 56 56 56 57 56 54 52 50 48 46 46 46 47 48 48 47 46 45 46 47 48 49 51 52 51 50 48 48 48 47 44 42 40 39 38 36 35 35 36 35
26 23 21 19 16 14 12 10 9 8 8 9 9 9 10 12 14 15 17 20 21 22 24 24 26 27 27 27 28 30 32 35 37 39 41 42 43 44 45 46 46 47 49 51 53 54 55 55 55 54 52 51 50 49 48 48 48 48 47 46 44 44 45 46 47 47 48 49 49 48 48 47 47 47 47 47 45 43 40 38 35 33 31 30 27
25 22 20 18 15 13 11 10 9 9 9 9 9 9 11 12 14 16 19 21 22 23 24 25 26 28 29 29 30 32 35 37 39 40 42 43 44 45 45 46 46 46 46 48 49 51 51 50 50 50 50 51 51 50 48 48 47 46 46 45 45 45 45 45 45 45 46 46 46 46 45 45 46 47 48 47 45 42 40 36 32 30 28 25 24
24 21 19 17 14 13 11 10 10 10 9 9 9 10 12 13 15 17 19 21 22 22 24 25 27 29 30 32 33 35 38 40 41 42 43 44 45 46 46 47 47 46 46 47 48 48 47 45 45 47 48 50 50 49 47 46 45 45 45 45 45 44 44 44 44 43 43 44 44 43 43 45 47 47 45 43 41 39 35 31 28 26 24 22 21
23 20 18 16 14 13 12 11 11 10 9 10 10 11 13 14 16 18 19 20 21 22 24 26 28 29 31 33 36 38 40 41 42 43 44 45 46 47 48 48 48 48 48 47 48 47 46 45 45 46 46 47 47 46 45 45 44 45 45 45 44 44 43 42 42 42 43 43 43 42 44 47 46 43 40 39 37 34 30 26 24 21 19 18 17
21 19 18 16 14 13 12 11 11 10 10 11 11 13 14 15 17 18 19 19 21 22 24 26 28 30 33 35 37 39 41 42 43 44 46 47 49 49 50 50 50 50 50 49 48 47 46 46 46 45 45 45 44 43 43 44 44 44 45 45 44 43 42 42 42 42 42 41 41 43 45 45 41 38 37 35 33 29 24 21 19 17 16 15 14
21 19 18 16 15 13 12 12 11 11 11 12 12 14 15 16 17 18 19 20 22 23 25 27 29 31 33 36 39 41 42 43 43 44 45 47 48 49 50 51 51 51 50 48 46 46 46 45 45 45 45 45 44 43 44 44 44 45 45 44 43 42 42 43 42 40 39 39 42 43 42 39 36 35 34 32 28 25 21 17 16 15 14 14 14
21 20 18 16 14 13 13 13 12 12 13 13 14 14 15 16 17 18 19 20 22 24 25 27 28 31 33 35 37 40 42 43 42 42 42 43 44 45 46 46 46 46 45 43 42 43 44 43 43 42 42 43 44 44 44 44 45 45 43 42 43 43 43 42 40 40 40 40 41 40 37 35 34 32 30 28 24 21 17 15 14 14 14 14 14
21 20 18 16 15 14 14 14 14 14 14 14 13 14 15 16 17 18 19 20 21 23 24 26 28 30 32 33 34 35 38 40 40 40 41 42 42 43 43 42 40 40 39 38 39 40 40 40 40 39 40 42 44 44 44 44 45 45 43 42 43 43 42 42 40 41 40 39 36 35 33 32 31 28 26 24 21 18 15 15 14 14 14 14 14
21 19 17 16 16 16 15 15 15 15 15 14 14 14 15 15 16 17 19 20 21 23 24 26 28 29 31 32 33 33 34 36 38 39 40 41 42 43 44 43 41 39 37 35 36 37 36 36 38 39 40 43 44 42 42 43 44 43 42 42 42 42 42 42 40 39 37 35 33 32 31 29 27 25 23 21 18 16 15 14 14 14 14 14 14
21 19 18 17 17 17 17 16 16 15 15 15 16 16 16 15 15 16 18 20 21 23 24 26 28 29 30 31 33 34 35 36 37 38 38 39 40 41 42 42 41 39 36 34 34 34 34 34 36 38 41 43 43 42 42 42 41 40 39 40 41 42 41 40 38 36 33 31 30 29 28 27 24 22 20 18 15 14 14 14 14 14 14 14 15
21 19 19 19 18 18 17 17 16 15 16 17 17 17 16 16 17 18 19 20 22 23 24 26 27 29 30 31 33 34 35 35 36 36 37 37 38 39 39 39 37 35 33 33 34 34 35 35 36 38 40 41 41 41 41 39 37 37 38 38 39 40 39 38 35 32 29 28 28 27 25 24 21 19 17 15 13 13 14 14 14 13 14 15 17
21 21 20 19 19 18 17 16 16 17 18 18 17 16 16 17 19 20 21 22 23 24 25 26 27 28 30 31 32 33 33 34 35 36 36 37 37 37 38 37 35 32 31 32 34 35 35 36 38 39 39 39 39 39 38 36 35 36 36 37 37 38 37 35 31 28 27 26 26 25 23 21 19 16 14 13 12 11 12 13 12 12 13 15 18
23 22 21 20 20 18 17 17 18 19 18 17 16 16 17 19 20 21 22 24 25 27 27 28 28 28 29 30 32 32 32 33 33 34 35 36 37 37 37 38 37 36 35 35 35 35 35 37 39 39 38 37 36 35 33 33 34 35 36 36 37 36 35 31 28 25 25 25 24 23 21 19 16 13 11 10 10 10 11 11 10 11 12 15 19
23 22 21 21 19 18 18 19 20 19 18 17 16 17 18 19 20 21 22 24 25 27 28 29 29 29 29 29 30 31 31 31 32 33 33 34 35 36 37 37 38 38 37 36 36 36 36 37 37 36 35 34 33 31 30 31 33 35 35 35 35 34 31 28 25 24 23 23 23 21 19 16 13 10 9 8 8 8 8 8 8 9 12 16 21
24 23 22 21 20 20 20 21 20 19 18 17 17 17 18 19 20 21 22 23 25 26 27 28 29 30 30 30 31 31 31 30 31 31 31 32 32 33 34 34 35 35 36 36 36 37 37 35 33 33 32 31 29 27 28 31 33 34 34 33 33 31 28 25 23 22 22 21 21 19 16 13 10 7 6 6 5 5 5 6 7 10 14 19 21
25 23 22 22 22 22 22 21 20 19 19 18 17 18 18 18 19 20 21 23 24 25 26 27 29 31 32 32 32 32 32 31 31 31 31 31 32 32 33 32 32 32 33 34 34 34 34 32 30 29 28 27 26 26 28 31 33 34 34 33 32 30 26 22 21 20 20 20 19 16 13 9 6 4 3 3 4 6 7 7 9 12 16 18 19
25 24 23 23 23 23 22 21 21 20 19 18 17 17 17 18 19 20 20 21 22 23 24 26 27 28 30 31 32 32 33 33 34 34 33 32 31 31 31 31 31 30 31 31 31 31 31 30 28 27 27 26 26 27 28 30 32 34 33 32 31 28 24 20 18 18 18 18 16 14 10 7 4 2 1 5 7 7 7 9 10 12 14 15 15
26 25 25 24 23 23 23 23 22 21 19 18 17 16 17 18 18 19 19 20 21 21 22 24 24 26 27 28 30 31 32 32 33 33 33 32 31 30 29 30 30 30 30 30 30 30 30 30 30 29 29 28 28 28 29 31 33 34 32 30 29 26 22 18 16 15 15 14 13 10 8 4 2 0 3 7 8 7 7 9 11 11 12 13 13
26 26 25 25 25 26 25 24 22 20 18 16 16 16 17 17 17 17 18 19 19 20 21 22 22 23 24 25 26 27 28 29 29 30 30 30 30 29 28 28 28 28 29 29 30 30 30 31 31 31 30 30 30 30 31 31 33 33 31 28 27 25 21 17 14 13 12 11 9 7 5 3 0 2 4 7 8 7 7 9 10 11 12 12 12
27 27 28 28 28 27 25 23 21 19 17 15 15 16 16 16 16 16 17 17 18 19 20 20 20 20 21 22 23 23 24 25 26 27 28 28 28 28 28 27 26 27 27 28 30 30 30 30 31 31 31 32 32 32 32 32 32 31 29 26 24 23 20 16 12 11 10 9 7 5 4 2 0 3 5 7 8 9 9 9 10 11 12 13 13
30 30 30 30 28 26 24 22 20 18 16 15 16 16 16 15 15 15 16 16 17 18 18 19 19 19 19 20 20 21 22 23 24 25 26 27 27 28 28 27 26 26 26 27 28 29 29 30 30 30 31 31 32 32 32 32 31 29 27 23 22 21 20 16 12 9 9 8 6 5 3 2 0 3 5 7 9 11 11 11 11 12 12 13 13
32 32 31 29 27 25 23 22 20 17 16 16 16 16 15 14 14 14 14 15 15 16 16 17 17 17 17 18 19 20 21 22 23 24 25 25 26 27 27 27 27 26 26 26 26 27 28 28 28 29 29 29 29 30 30 29 28 27 25 22 20 19 18 16 12 9 8 6 5 4 4 3 1 2 4 7 10 12 13 13 12 12 12 13 12
33 32 30 27 25 24 24 22 20 17 16 15 15 15 14 13 13 13 13 13 14 14 14 14 15 15 16 16 17 18 19 20 21 22 23 24 25 26 26 27 27 27 27 26 26 27 27 27 27 27 27 27 27 28 27 26 25 23 22 21 19 17 16 15 13 10 8 6 4 3 3 3 3 2 3 5 8 10 12 13 13 12 12 12 12
33 31 29 27 26 25 24 22 19 17 16 15 15 14 13 12 12 12 12 12 12 12 12 12 13 14 14 15 16 17 18 19 20 21 22 23 24 25 25 26 26 27 27 27 26 26 26 26 26 25 25 25 25 26 25 24 22 21 19 19 18 16 14 13 12 10 9 7 5 3 3 3 4 4 4 5 7 9 11 13 13 12 11 11 11
33 31 29 28 27 25 23 21 19 17 16 15 14 13 12 11 11 10 10 11 10 10 10 11 12 12 13 14 15 16 17 18 19 20 21 22 23 24 25 25 25 26 26 26 26 25 25 25 25 24 24 23 24 24 23 22 21 19 18 17 16 15 13 12 11 9 8 7 6 5 4 4 4 3 4 5 7 9 11 12 12 11 10 10 10
32 30 29 27 26 25 23 21 19 18 17 15 14 12 11 10 10 10 9 10 10 9 9 10 11 11 12 12 14 15 16 17 18 19 20 21 22 23 24 24 25 25 25 25 25 25 24 24 24 24 23 23 23 23 22 21 20 19 17 15 15 15 14 12 10 9 7 6 6 5 5 4 3 3 3 5 6 8 10 11 11 10 9 10 10
30 29 28 26 25 24 22 20 19 18 17 15 13 12 11 10 10 9 9 8 8 8 9 9 9 10 11 11 12 14 15 16 17 18 19 20 21 22 23 23 24 24 24 24 24 24 24 24 23 23 23 22 21 21 22 21 21 19 17 15 14 14 14 12 11 10 8 6 5 4 3 2 1 0 2 4 5 7 9 9 8 8 9 9 10
28 27 26 25 24 23 22 21 20 18 16 15 13 12 11 10 10 9 9 8 8 8 8 9 9 9 10 11 12 13 14 15 16 17 18 19 20 21 22 23 23 23 24 24 24 24 24 24 23 23 22 21 20 19 19 20 20 20 18 16 15 14 13 12 12 11 9 8 6 5 3 2 1 1 2 3 5 6 7 8 8 8 9 9 10
28 27 26 25 24 23 22 21 19 17 16 14 13 12 11 10 10 10 9 8 8 8 8 8 8 8 9 10 11 12 13 14 15 17 18 19 21 22 22 23 23 23 23 23 23 23 24 23 23 23 22 22 21 19 18 18 18 18 18 17 16 15 14 13 13 12 11 9 8 6 5 3 1 1 2 4 5 6 7 8 9 9 10 10 10
Wind_Direction
161 161 159 160 163 163 163 164 164 166 167 166 168 169 168 165 161 151 122 77 22 4 352 344 340 337 336 335 335 333 332 331 330 330 331 331 332 332 333 334 334 335 335 336 336 336 335 335 336 335 334 333 333 334 333 333 331 330 328 326 324 321 317 308 300 302 307 309 309 311 312 313 312 312 313 313 312 311 310 307 305 303 301 299 297
163 164 164 164 167 169 169 169 169 170 171 170 172 173 171 170 166 155 139 34 352 344 337 337 336 336 336 335 335 334 331 331 330 329 330 331 332 333 333 333 333 333 334 334 334 333 332 332 332 332 331 330 330 330 330 329 328 326 325 324 323 321 318 312 305 304 306 309 310 310 312 314 312 312 314 313 312 312 311 309 307 306 303 301 298
167 169 170 170 172 174 173 173 173 174 175 176 177 177 175 174 171 169 194 310 333 335 336 339 338 337 336 335 334 333 332 331 331 330 330 330 331 331 331 331 332 332 332 332 332 331 330 330 330 330 328 327 327 327 326 326 325 323 323 322 321 319 318 314 307 304 305 307 310 311 312 314 313 313 315 314 313 313 312 310 309 307 304 302 300
173 174 176 176 176 177 177 177 177 179 180 181 180 180 180 178 179 200 282 321 334 336 336 337 336 335 334 334 333 332 331 330 330 330 329 329 329 329 329 330 331 331 331 331 330 330 329 328 328 328 327 325 325 325 325 324 323 322 321 321 320 319 317 313 307 304 302 304 308 311 312 313 313 314 315 315 315 315 313 311 309 307 304 303 304
178 179 181 182 181 181 181 180 181 183 183 183 184 184 185 187 195 241 309 325 331 334 335 335 334 334 333 333 333 331 329 328 328 328 328 328 328 328 329 330 329 329 329 329 329 329 328 328 327 327 326 325 325 325 324 323 323 322 321 321 321 319 316 313 309 306 302 301 305 310 311 312 312 313 314 314 315 316 314 312 310 307 307 307 307
183 183 184 186 185 184 184 183 183 185 186 186 188 188 190 198 215 265 308 324 330 333 335 335 335 335 334 333 332 330 329 329 328 328 328 327 328 328 328 328 328 328 328 329 329 328 327 327 327 327 326 325 325 324 324 323 323 322 321 322 321 319 316 313 311 307 303 301 303 306 308 310 311 311 313 313 312 312 314 314 313 310 309 308 307
186 186 187 188 188 186 185 185 185 187 188 188 191 194 200 215 239 285 316 331 336 336 336 336 335 334 333 332 331 331 330 330 329 328 328 328 327 327 327 327 327 327 328 328 328 328 328 327 327 327 326 325 324 323 323 322 322 321 321 322 321 318 315 313 310 307 303 301 301 302 305 308 308 308 311 313 311 310 312 313 312 311 309 307 306
188 189 189 188 189 187 186 186 186 187 190 193 198 205 215 239 280 316 331 336 336 335 335 335 334 332 332 331 331 331 330 330 329 328 328 328 328 328 328 328 328 328 328 329 330 330 330 329 328 327 326 325 323 322 322 321 321 320 320 321 320 317 314 312 309 306 303 301 300 301 302 304 304 305 308 310 308 309 313 312 309 308 308 307 306
192 191 190 189 189 189 188 187 188 192 196 201 207 218 241 289 321 330 334 334 334 334 334 333 331 329 328 329 330 331 331 331 332 331 330 330 329 329 329 330 330 330 331 332 332 332 332 331 330 329 328 326 324 323 322 321 321 319 318 319 318 315 313 311 308 304 301 299 299 300 300 299 300 302 304 304 304 307 311 310 308 308 308 306 304
195 193 191 191 192 191 191 192 194 198 203 209 219 243 287 316 328 328 330 332 332 333 332 329 328 327 328 329 330 333 334 334 335 334 333 332 331 330 332 332 333 333 332 333 333 333 333 332 332 331 329 328 326 324 322 320 320 318 317 316 315 313 311 309 306 302 299 297 297 297 296 296 298 299 298 300 302 304 307 307 307 307 307 304 302
194 193 193 194 194 194 195 197 201 205 209 219 236 268 298 309 318 322 327 331 331 331 330 329 329 329 330 333 335 337 338 337 337 336 335 333 332 332 332 332 332 332 332 332 332 332 332 332 332 331 330 328 327 324 322 320 319 317 315 314 313 311 308 305 302 300 297 294 294 294 293 293 296 298 297 298 300 302 304 303 302 302 301 299 298
195 195 195 196 196 197 199 201 203 208 214 224 238 259 283 297 313 322 327 331 331 331 332 331 331 332 333 336 339 341 341 339 338 336 334 333 331 330 331 330 330 331 332 332 332 332 332 331 331 331 329 328 326 323 321 319 317 315 314 313 311 310 307 303 298 295 294 292 291 291 291 292 295 296 297 297 298 299 300 299 297 297 296 295 294
196 197 196 197 199 200 201 203 204 208 213 222 235 252 280 300 316 325 328 330 331 331 332 333 334 335 335 337 340 342 341 338 336 335 332 331 330 329 329 329 329 331 332 332 331 330 330 330 329 329 329 326 323 321 320 318 316 314 313 311 310 308 307 304 299 294 293 291 289 289 291 293 294 294 296 296 295 294 294 295 295 294 294 293 292
197 198 199 200 201 201 202 203 204 209 214 224 240 260 288 309 319 324 326 329 330 331 333 334 336 336 336 336 338 340 339 336 334 332 330 329 329 329 329 329 329 330 331 330 329 329 328 327 326 326 326 324 321 319 317 315 313 311 310 308 307 306 306 305 303 299 296 293 290 290 292 293 293 294 297 297 294 291 290 291 292 292 292 293 293
198 200 201 201 201 201 202 203 206 211 219 230 249 275 298 311 319 322 325 328 329 331 333 334 335 336 335 334 334 336 336 334 331 331 330 329 329 329 329 329 329 329 329 328 327 327 326 325 324 323 322 321 319 316 313 312 311 309 307 306 305 305 305 305 305 302 299 297 295 294 295 295 295 295 296 295 292 289 287 287 288 290 291 290 291
201 201 201 201 201 201 202 205 210 216 225 240 260 287 301 310 317 320 324 327 328 330 333 334 334 334 333 332 331 332 334 333 330 330 330 330 329 329 328 328 328 328 327 327 326 325 324 323 321 320 319 318 317 313 311 312 311 309 307 306 305 305 304 304 305 303 301 300 299 297 296 296 295 293 292 290 289 287 286 286 286 286 287 287 287
202 202 202 201 202 202 204 208 214 221 232 248 270 291 302 309 315 319 322 325 327 330 332 333 332 331 331 330 328 329 331 333 332 331 331 330 329 329 328 327 327 326 325 325 324 323 323 322 320 319 317 316 315 313 313 314 313 310 308 307 306 306 304 304 306 305 303 304 304 302 300 298 296 294 292 289 287 286 284 284 283 283 284 285 285
202 202 202 202 203 205 207 212 219 226 238 256 275 290 300 307 313 318 321 324 327 329 329 330 330 330 328 328 327 327 330 333 333 332 331 330 329 328 327 326 325 324 324 324 323 323 323 322 321 319 318 317 317 316 315 314 311 308 307 305 305 305 304 306 307 306 306 309 310 307 304 302 300 300 299 297 293 289 285 284 284 285 284 283 282
203 202 203 203 205 207 211 216 223 230 244 262 277 288 298 306 312 316 320 323 326 327 327 326 327 327 326 325 326 327 328 331 333 332 331 329 328 327 327 326 325 324 323 323 323 323 323 323 322 321 320 319 318 316 315 312 308 306 305 305 305 304 305 307 307 305 306 310 310 306 303 303 304 304 306 304 300 296 291 287 287 286 284 282 281
202 202 203 205 207 210 214 219 227 236 251 265 277 289 299 306 311 315 319 323 325 325 324 323 324 324 323 323 325 327 329 331 332 331 330 329 327 327 327 326 326 325 324 324 323 323 323 323 322 322 320 319 318 317 316 313 310 308 307 306 305 305 305 305 305 304 306 307 306 304 305 306 307 307 307 306 303 300 295 291 290 287 284 281 278
202 203 205 206 209 213 216 222 230 240 255 269 281 291 298 304 309 314 318 321 321 321 321 321 321 321 322 323 326 329 331 331 331 330 329 328 328 327 328 328 328 327 325 324 323 322 322 322 321 321 321 322 321 319 316 313 310 308 306 304 304 304 304 303 304 305 304 303 303 305 306 307 308 308 307 305 303 302 299 296 293 288 283 279 278
203 204 206 208 211 215 219 225 233 243 258 272 282 291 297 303 309 314 317 318 319 319 319 319 319 319 320 324 327 329 330 330 329 329 328 328 328 330 330 330 329 328 325 323 322 322 322 322 322 323 325 324 321 317 314 312 310 308 306 305 305 306 306 305 306 305 302 302 303 304 305 305 306 307 306 305 305 306 305 301 296 289 284 280 279
204 204 207 210 213 216 221 228 237 248 260 270 279 290 297 303 309 312 315 316 317 318 318 319 319 319 320 323 327 328 329 329 328 328 327 328 329 331 331 331 330 328 326 323 322 322 323 323 324 325 325 322 319 315 312 312 311 310 310 311 311 312 312 310 308 305 303 303 303 302 303 304 305 306 306 306 307 308 307 303 297 292 290 287 285
204 206 209 212 214 218 224 232 242 252 261 270 279 288 295 301 306 310 313 315 316 317 319 320 321 322 323 324 326 328 328 328 328 328 328 328 330 331 331 331 330 328 326 323 322 323 323 323 322 322 322 321 320 317 314 315 316 316 317 318 318 317 315 312 310 308 305 304 303 301 301 303 305 306 306 306 307 307 304 301 296 294 294 292 289
206 207 210 213 215 221 228 235 245 254 261 270 278 284 291 299 305 309 312 314 315 318 321 323 324 325 325 326 327 328 328 328 329 329 329 329 330 331 332 331 330 329 326 325 324 323 322 320 319 319 320 322 322 321 319 322 324 323 322 322 321 318 316 313 311 308 306 305 303 301 301 304 307 307 307 307 308 306 302 298 295 293 292 287 280
207 208 211 215 218 224 231 238 247 255 261 268 276 284 293 300 305 308 311 313 316 319 322 324 325 325 326 327 327 328 328 329 329 329 329 330 331 332 332 331 330 328 327 326 326 324 322 320 319 320 322 324 324 324 324 326 327 326 325 324 322 320 318 315 312 309 308 307 303 300 304 308 309 309 309 310 308 304 298 293 290 286 281 275 264
209 211 214 217 221 226 233 241 248 254 260 268 278 287 295 301 304 307 310 314 318 321 322 324 326 327 328 328 328 327 328 329 330 330 331 332 332 332 331 330 329 328 328 328 327 324 322 321 321 323 325 326 326 326 327 328 327 326 325 324 323 321 319 317 314 310 308 306 303 304 308 311 311 311 312 311 307 301 293 285 279 272 265 258 243
211 215 216 219 223 228 235 241 247 252 259 267 277 285 293 300 304 308 313 317 319 322 325 328 329 329 330 329 328 327 328 330 332 334 333 333 332 331 331 330 329 329 329 329 327 323 321 322 324 326 328 328 328 328 328 327 326 325 325 326 325 323 321 319 316 311 307 307 308 310 312 313 313 313 312 309 303 296 287 274 265 256 247 240 225
214 216 218 221 226 230 236 240 244 251 259 267 275 284 293 301 305 310 314 317 321 324 327 330 331 331 332 332 331 330 329 331 333 334 333 333 333 332 331 330 329 329 330 329 325 322 322 324 326 328 330 330 329 328 327 327 326 325 327 328 328 325 322 320 317 313 312 313 313 314 315 315 315 314 310 305 299 291 278 261 249 241 233 226 210
216 218 220 224 228 232 237 241 246 252 259 267 276 288 297 301 305 309 313 317 322 326 329 330 331 331 332 333 333 333 331 331 331 331 332 332 332 331 330 329 329 330 331 329 324 322 324 325 326 328 330 329 328 328 328 328 327 326 328 330 329 326 323 320 319 317 316 317 318 318 318 318 316 313 307 301 295 285 267 247 237 231 225 220 205
218 221 223 226 230 234 238 244 249 255 261 269 278 286 292 296 301 307 312 318 323 326 328 329 330 331 332 332 332 332 332 332 332 332 333 332 332 331 330 329 331 333 333 330 325 323 325 327 328 330 329 326 326 328 328 326 325 326 329 329 327 325 323 321 320 319 319 321 322 322 321 319 315 310 304 297 290 279 258 237 229 225 218 214 203
221 222 224 227 232 236 241 246 252 258 265 273 279 283 286 292 299 306 312 317 320 322 325 327 328 330 332 332 331 331 332 334 335 335 335 334 333 332 331 330 333 336 334 330 326 326 329 332 330 328 325 325 327 328 327 325 326 328 329 327 325 324 324 322 321 320 321 325 327 326 324 320 314 308 302 294 286 271 248 230 225 222 213 204 194
223 223 226 230 234 238 243 248 254 261 268 273 277 281 287 295 302 307 311 314 317 319 323 326 328 330 331 332 331 332 333 334 335 335 336 337 335 334 333 333 337 338 336 333 331 332 334 333 328 323 324 326 327 327 327 328 330 331 329 327 326 324 324 322 321 322 326 330 330 328 326 321 314 309 301 291 278 261 243 230 225 220 210 199 186
224 225 228 233 237 241 246 251 257 263 267 271 275 283 292 299 303 307 309 311 314 318 322 326 329 331 332 332 331 333 334 336 336 337 338 338 337 336 335 335 337 340 342 341 338 335 332 329 325 325 327 327 327 327 328 331 332 332 330 328 326 324 323 324 325 328 332 333 332 330 328 323 317 311 300 287 273 255 239 230 226 219 207 194 181
226 228 231 235 239 243 248 253 258 262 266 271 279 288 295 299 302 305 308 310 313 317 321 326 329 332 333 332 332 334 336 338 339 341 342 340 339 338 336 335 338 343 346 345 341 336 332 330 328 328 327 327 327 329 331 333 333 333 331 328 326 326 326 327 330 334 336 335 334 333 331 326 320 313 300 284 269 253 237 227 224 217 202 187 175
228 230 233 237 241 245 249 253 258 262 266 274 281 287 292 296 300 304 307 310 313 316 320 323 326 329 331 332 332 334 338 342 344 345 345 344 343 341 340 342 345 347 347 345 342 338 336 335 332 329 327 328 329 331 335 337 337 335 333 331 329 329 330 331 334 338 339 337 336 336 334 331 326 318 302 282 264 248 233 220 214 203 187 175 167
230 233 235 238 242 245 249 254 258 263 268 273 278 283 289 295 299 303 306 309 312 315 318 321 324 326 328 330 332 335 341 345 347 348 346 345 346 347 349 350 351 349 347 346 345 342 341 340 336 332 331 331 333 336 340 342 340 337 336 335 334 333 333 333 336 340 341 340 339 339 340 339 335 325 304 280 253 218 193 187 184 176 170 167 164
232 235 237 240 243 247 251 255 259 262 266 270 275 281 288 293 297 301 305 308 312 316 319 322 324 325 326 329 332 336 339 343 345 347 348 349 350 352 353 353 353 351 350 350 349 348 347 346 344 340 338 338 340 343 345 343 340 339 340 339 338 337 334 333 337 342 343 341 341 344 349 351 346 331 304 243 193 168 158 161 165 163 163 164 164
233 235 238 240 244 248 252 256 258 259 262 267 273 280 287 291 295 300 304 308 314 318 321 324 326 326 327 330 332 334 337 340 344 347 349 351 351 352 352 352 352 352 351 351 351 351 350 350 350 349 347 345 344 345 344 342 340 340 341 341 341 339 335 334 339 344 346 345 346 349 355 1 359 338 223 182 174 165 156 157 161 163 164 165 166
235 237 239 242 246 250 253 254 254 256 259 265 272 279 285 289 293 299 304 310 316 320 323 325 327 328 330 331 332 334 337 340 344 347 349 349 349 349 349 349 349 349 349 349 350 349 349 349 349 349 347 345 343 341 340 338 337 338 340 343 345 343 339 337 342 349 351 351 351 352 355 2 13 180 180 177 177 173 160 156 160 165 168 169 170
236 238 241 245 248 250 250 250 250 253 257 263 270 277 282 286 292 299 306 313 318 321 324 325 327 329 331 331 333 335 336 339 342 345 348 349 349 348 347 346 346 346 346 346 346 346 346 347 346 345 343 342 340 337 336 335 335 335 338 342 347 347 343 340 345 353 356 356 355 356 358 1 323 207 198 193 190 182 167 163 167 169 171 173 176
238 241 244 246 247 246 245 245 248 251 254 260 267 274 279 285 293 301 308 315 319 320 322 324 327 330 331 331 333 335 336 338 341 344 347 349 350 349 348 346 344 343 343 342 343 343 344 344 343 343 342 340 338 336 335 335 335 335 337 341 346 348 347 346 351 358 0 360 0 3 8 14 256 221 218 216 209 198 185 179 178 177 177 179 181
240 242 243 243 242 242 243 246 247 249 252 258 266 272 278 286 294 302 309 314 316 318 321 324 328 332 333 334 335 336 337 339 341 343 345 348 349 350 349 348 347 345 342 340 339 339 340 340 341 341 341 341 339 338 337 337 337 336 337 339 344 348 349 351 359 9 11 7 4 3 9 29 98 218 224 224 221 216 208 199 191 185 184 186 187
239 240 239 240 240 242 245 246 246 246 250 257 265 271 278 286 295 302 307 311 314 317 321 324 329 334 336 338 339 340 341 342 343 343 345 346 348 349 349 349 349 348 346 344 342 339 338 338 339 340 341 341 340 339 339 340 340 339 338 340 343 346 348 350 357 6 10 6 3 360 357 3 6 223 225 227 227 225 221 214 204 194 190 191 193
237 237 237 239 241 243 244 244 243 244 248 256 263 270 277 285 292 299 303 307 311 316 321 326 331 335 337 340 342 343 345 347 347 346 346 346 346 347 348 348 349 349 348 348 347 344 341 339 338 339 340 341 341 342 342 343 343 343 343 344 344 344 345 346 346 347 345 343 349 358 353 343 335 305 260 241 232 227 224 220 213 202 196 196 200
236 237 238 240 241 242 242 241 240 242 248 254 261 268 275 282 288 293 298 303 309 315 320 326 332 335 336 339 342 344 346 348 349 349 349 348 347 347 346 347 347 348 348 348 348 347 346 343 340 339 340 341 341 342 344 346 347 347 350 351 349 346 345 344 341 337 331 324 323 330 333 330 327 314 289 263 240 225 219 217 212 204 200 203 206
235 236 237 239 240 240 239 238 238 242 248 253 258 265 271 277 282 287 293 299 306 312 319 325 329 332 335 337 338 342 345 347 348 348 349 349 349 348 347 346 346 346 346 346 346 346 346 345 343 342 342 342 341 340 342 345 347 349 353 357 357 353 351 348 342 336 327 318 312 311 307 303 304 301 285 265 242 221 213 211 208 204 203 207 209
233 234 236 237 237 238 238 237 239 243 247 251 255 260 264 269 274 280 286 293 300 306 314 321 325 327 329 332 335 339 342 343 344 345 346 346 347 347 347 347 346 345 344 344 344 343 343 344 344 344 344 346 345 341 339 340 342 345 350 358 2 2 359 355 349 343 333 322 317 314 306 299 296 285 262 244 228 214 207 206 208 209 210 211 212
232 233 234 236 237 237 237 237 240 244 247 249 251 253 256 261 266 270 276 283 289 297 306 313 316 319 322 327 332 335 338 340 341 342 343 343 343 344 345 345 345 344 343 342 342 341 342 343 344 343 344 345 346 345 342 340 338 338 341 349 358 2 0 358 356 353 347 341 338 332 322 320 338 260 207 201 197 198 202 209 216 222 222 220 220
230 231 233 235 235 235 234 236 239 242 243 243 244 247 249 253 257 262 267 272 278 288 297 303 307 311 316 322 328 332 335 337 339 340 341 342 342 342 342 342 341 341 342 341 341 340 340 340 341 342 342 342 344 344 343 342 340 337 337 340 345 349 349 350 351 351 349 350 353 352 351 10 77 125 161 178 188 199 212 222 230 233 232 232 232
228 230 232 232 232 232 233 235 238 240 239 239 240 242 244 247 252 255 259 263 269 277 285 291 297 304 312 319 324 328 332 336 338 340 342 343 343 342 342 341 340 339 339 339 339 339 338 338 338 338 338 339 340 340 340 340 338 337 336 337 337 338 337 336 337 337 337 339 340 341 342 341 321 254 227 223 225 229 233 238 241 241 241 241 241